STARLINK-11479 [DTC] (62270 NORAD) Tracking and Keplerian Element Data

This shows tracking and keplerian element data for the satellite.

Feedback or suggestion? Click here.




ElementValue
Catalog62270
NameSTARLINK-11479 [DTC]
Epoch Orbit1038
Epoch Day35.25001157
Epoch Year2025
RAAN298.3282
Inclination42.9993
Eccentricity0.0001657
Argument of Perigee296.7029
Mean Anonmoly201.4959
Mean Motion15.70784007
Decay Rate0.00113797
L11 62270U 24237D 25035.25001157 .00113797 00000+0 88030-3 0 9990
L22 62270 42.9993 298.3282 0001657 296.7029 201.4959 15.70784007 10384



Live tracking and technical data element details for STARLINK-11479 [DTC] (NORAD 62270). STARLINK-11479 [DTC] can be tracked NOW for your location showing map with azimuth and elevation plus other details from your city location.







IsCatalogInMostPopularTable: catalog: 62270, numindb: 13
Update: records affected: 1



GetName: 62270 STARLINK-11479 [DTC]

Hit Count: updated at: Mon, 19 May 2025 03:20:38 GMT